Regional Weather Roundup
Issued by NWS

Home | Current Version | Previous Version | Text Only | Print | Product List | Glossary Off
Versions: 1 2 3 4 5 6 7 8 9 10 11 12 13 14 15 16 17 18 19 20 21 22 23 24 25 26 27 28 29 30 31 32 33 34 35 36 37 38 39 40 41 42 43 44 45 46 47 48 49 50

867
ASUS43 KLMK 130102
RWRKY
KENTUCKY REGIONAL WEATHER ROUNDUP
NATIONAL WEATHER SERVICE LOUISVILLE KY
800 PM EST FRI FEB 12 2016

NOTE "FAIR" INDICATES FEW OR NO CLOUDS BELOW 12,000 FEET
WITH NO SIGNIFICANT WEATHER AND/OR OBSTRUCTIONS TO VISIBILITY.

KYZ001>023-026-027-061>063-070>075-130200-
WESTERN AND SOUTH CENTRAL KENTUCKY

CITY           SKY/WX    TMP DP  RH WIND       PRES   REMARKS
PADUCAH        CLEAR     32  21  64 N12       30.38R WCI  23
HENDERSON      CLOUDY    28  18  64 NW9       30.37R WCI  20
OWENSBORO      PTCLDY    28  17  63 NW15      30.36R WCI  16
HOPKINSVILLE   PTCLDY    32  23  69 NW14      30.34R WCI  22
BOWLING GREEN  CLOUDY    32  23  69 NW14G21   30.32R WCI  22
GLASGOW        NOT AVBL
$$

KYZ024-025-028>034-038-045-046-053-130200-
NORTH CENTRAL KENTUCKY

CITY           SKY/WX    TMP DP  RH WIND       PRES   REMARKS
LOUISVILLE/SDF MOCLDY    29  15  56 NW20      30.27R WCI  16
LOUISVILLE/LOU CLOUDY    29  14  53 W13       30.27R WCI  19
FORT KNOX      FLURRIES  28  16  61 W16G25    30.25R WCI  16
$$

KYZ035>037-039>044-047>052-055>060-089>105-130200-
NORTHEAST KENTUCKY

CITY           SKY/WX    TMP DP  RH WIND       PRES   REMARKS
LEXINGTON      CLOUDY    28  19  69 W15       30.20R WCI  16
COVINGTON      LGT SNOW  24  16  71 W26G36    30.18R WCI   8
FRANKFORT      CLOUDY    28  19  69 NW13G21   30.21R WCI  17
$$

KYZ054-064>069-076>088-106>120-130200-
SOUTHEAST KENTUCKY

CITY           SKY/WX    TMP DP  RH WIND       PRES   REMARKS
JACKSON        LGT SNOW  29  21  72 W9        30.13R WCI  20
LONDON         CLOUDY    30  22  72 W10       30.18R WCI  21
SOMERSET       NOT AVBL
MIDDLESBORO    CLOUDY    31  24  74 NW6       30.19R WCI  26
MONTICELLO     CLOUDY    30  24  78 W17G26    30.25R WCI  18
$$





USA.gov is the U.S. government's official web portal to all federal, state and local government web resources and services.